Location: Fuglau
(48.6333°N, 15.5500°E)
Time: 06:47:45
(UTC+00:00)

Lacrosse 5 rocket - Pass Details

Date: 27 February 2020
Orbit: 460 x 637 km, 57.0° (Epoch: 09 April)

Event Time Altitude Azimuth Distance (km) Brightness Sun altitude
Rises 17:01:22 0° 295° (WNW) 2,850 6.1 -4.7°
Reaches altitude 10° 17:03:51 10° 307° (NW) 1,971 4.9 -5.2°
Maximum altitude 17:07:50 30° 8° (N) 1,140 2.8 -5.8°
Drops below altitude 10° 17:11:55 10° 70° (ENE) 2,021 3.6 -6.5°
Enters shadow 17:12:29 - 73° (ENE) 2,219 3.8 -6.6°
